Location: Shepherdstown, WV
(39.4326°N, 77.8042°W)
Time: 20:28:03
(UTC-04:00)

Vanguard 1 Rocket - Pass Details

Date: 09 August 2021
Orbit: 650 x 4226 km, 34.3° (Epoch: 19 September)

Event Time Altitude Azimuth Distance (km) Brightness Sun altitude
Rises 09:42:36 0° 246° (WSW) 8,444 11.9 37.9°
Reaches altitude 10° 09:48:34 10° 245° (WSW) 7,422 11.7 39.0°
Maximum altitude 10:13:36 70° 168° (SSE) 3,451 11.3 43.6°
Drops below altitude 10° 10:28:18 10° 89° (E) 4,714 11.9 46.3°
Sets 10:31:08 0° 87° (E) 5,359 12.0 46.8°
